| time (UTC) | temp F | wind direction | speed MPH | gust MPH | rain 1hr in | rain 24hr in | rain mn in | humidity % | barometer mb |
| 20260505002903 | 67 | 269 | 0.0 | 0.0 | 0.00 | 0.00 | 0.00 | 52 | 1012.7 |
| 20260505002403 | 68 | 270 | 0.0 | 0.0 | 0.00 | 0.00 | 0.00 | 52 | 1012.7 |
| 20260505001904 | 68 | 270 | 0.0 | 0.0 | 0.00 | 0.00 | 0.00 | 51 | 1012.5 |
| 20260505001403 | 68 | 269 | 0.0 | 0.0 | 0.00 | 0.00 | 0.00 | 50 | 1012.6 |
| 20260505000903 | 69 | 269 | 0.0 | 0.0 | 0.00 | 0.00 | 0.00 | 49 | 1012.6 |
| 20260505000405 | 69 | 270 | 0.0 | 0.0 | 0.00 | 0.00 | 0.00 | 50 | 1012.6 |
| 20260504235902 | 70 | 269 | 0.0 | 0.0 | 0.00 | 0.00 | 0.00 | 48 | 1012.6 |
| 20260504235403 | 70 | 270 | 0.0 | 1.0 | 0.00 | 0.00 | 0.00 | 49 | 1012.6 |
| 20260504234904 | 70 | 270 | 0.0 | 1.0 | 0.00 | 0.00 | 0.00 | 47 | 1012.6 |
| 20260504234403 | 71 | 270 | 0.0 | 1.0 | 0.00 | 0.00 | 0.00 | 46 | 1012.7 |
| 20260504233404 | 71 | 270 | 1.0 | 2.0 | 0.00 | 0.00 | 0.00 | 42 | 1012.7 |
| 20260504232902 | 72 | 256 | 1.0 | 3.0 | 0.00 | 0.00 | 0.00 | 42 | 1012.7 |
| 20260504232403 | 72 | 263 | 1.0 | 1.0 | 0.00 | 0.00 | 0.00 | 41 | 1012.7 |
| 20260504231904 | 73 | 270 | 0.0 | 2.0 | 0.00 | 0.00 | 0.00 | 42 | 1012.7 |
| 20260504230903 | 74 | 259 | 1.0 | 3.0 | 0.00 | 0.00 | 0.00 | 37 | 1012.8 |
| 20260504230404 | 74 | 243 | 2.0 | 3.0 | 0.00 | 0.00 | 0.00 | 35 | 1012.8 |
| 20260504225903 | 75 | 199 | 2.0 | 5.0 | 0.00 | 0.00 | 0.00 | 34 | 1012.7 |
| 20260504225403 | 75 | 156 | 2.0 | 7.0 | 0.00 | 0.00 | 0.00 | 33 | 1012.8 |
| 20260504224904 | 75 | 185 | 3.0 | 6.0 | 0.00 | 0.00 | 0.00 | 33 | 1012.8 |
| 20260504224403 | 75 | 251 | 4.0 | 8.0 | 0.00 | 0.00 | 0.00 | 33 | 1012.9 |
| 20260504223903 | 75 | 253 | 5.0 | 8.0 | 0.00 | 0.00 | 0.00 | 33 | 1012.9 |
| 20260504223404 | 76 | 225 | 5.0 | 12.0 | 0.00 | 0.00 | 0.00 | 36 | 1012.9 |
| 20260504222903 | 76 | 215 | 3.0 | 9.0 | 0.00 | 0.00 | 0.00 | 37 | 1012.6 |
| 20260504222403 | 76 | 261 | 3.0 | 10.0 | 0.00 | 0.00 | 0.00 | 37 | 1012.6 |
| 20260504221904 | 76 | 188 | 3.0 | 9.0 | 0.00 | 0.00 | 0.00 | 37 | 1012.6 |
| 20260504221403 | 76 | 207 | 2.0 | 7.0 | 0.00 | 0.00 | 0.00 | 38 | 1012.6 |
| 20260504220903 | 76 | 251 | 2.0 | 7.0 | 0.00 | 0.00 | 0.00 | 38 | 1012.6 |
| 20260504220404 | 76 | 187 | 4.0 | 8.0 | 0.00 | 0.00 | 0.00 | 36 | 1012.6 |
| 20260504215903 | 77 | 225 | 5.0 | 9.0 | 0.00 | 0.00 | 0.00 | 37 | 1012.6 |
| 20260504215403 | 77 | 186 | 5.0 | 10.0 | 0.00 | 0.00 | 0.00 | 35 | 1012.6 |
| 20260504214904 | 78 | 234 | 5.0 | 8.0 | 0.00 | 0.00 | 0.00 | 36 | 1012.5 |
| 20260504214403 | 78 | 153 | 3.0 | 8.0 | 0.00 | 0.00 | 0.00 | 36 | 1012.5 |
| 20260504213903 | 78 | 100 | 1.0 | 6.0 | 0.00 | 0.00 | 0.00 | 35 | 1012.5 |
| 20260504213404 | 78 | 241 | 2.0 | 7.0 | 0.00 | 0.00 | 0.00 | 34 | 1012.7 |
| 20260504212903 | 78 | 241 | 3.0 | 9.0 | 0.00 | 0.00 | 0.00 | 34 | 1012.7 |
| 20260504212403 | 78 | 227 | 3.0 | 9.0 | 0.00 | 0.00 | 0.00 | 33 | 1012.7 |
| 20260504205903 | 77 | 250 | 4.0 | 8.0 | 0.00 | 0.00 | 0.00 | 34 | 1012.8 |
| 20260504205403 | 77 | 164 | 2.0 | 5.0 | 0.00 | 0.00 | 0.00 | 36 | 1012.8 |
| 20260504204904 | 77 | 210 | 3.0 | 7.0 | 0.00 | 0.00 | 0.00 | 35 | 1012.8 |
| 20260504204406 | 78 | 249 | 3.0 | 7.0 | 0.00 | 0.00 | 0.00 | 37 | 1012.8 |
| 20260504203903 | 77 | 238 | 2.0 | 7.0 | 0.00 | 0.00 | 0.00 | 38 | 1012.8 |
| 20260504203403 | 77 | 260 | 4.0 | 7.0 | 0.00 | 0.00 | 0.00 | 37 | 1013.2 |
| 20260504202904 | 77 | 256 | 3.0 | 6.0 | 0.00 | 0.00 | 0.00 | 36 | 1013.2 |
| 20260504202403 | 77 | 267 | 1.0 | 3.0 | 0.00 | 0.00 | 0.00 | 37 | 1013.2 |
| 20260504201404 | 77 | 244 | 5.0 | 12.0 | 0.00 | 0.00 | 0.00 | 37 | 1013.5 |
| 20260504200903 | 78 | 196 | 5.0 | 9.0 | 0.00 | 0.00 | 0.00 | 33 | 1013.5 |
| 20260504200403 | 78 | 227 | 4.0 | 7.0 | 0.00 | 0.00 | 0.00 | 38 | 1013.5 |
| 20260504195403 | 77 | 214 | 1.0 | 3.0 | 0.00 | 0.00 | 0.00 | 41 | 1013.5 |
| 20260504194903 | 77 | 231 | 3.0 | 6.0 | 0.00 | 0.00 | 0.00 | 39 | 1013.5 |
| 20260504193903 | 77 | 209 | 3.0 | 7.0 | 0.00 | 0.00 | 0.00 | 38 | 1013.6 |
| 20260504193403 | 77 | 238 | 3.0 | 7.0 | 0.00 | 0.00 | 0.00 | 37 | 1014.0 |
| 20260504192904 | 77 | 247 | 3.0 | 8.0 | 0.00 | 0.00 | 0.00 | 39 | 1014.0 |
| 20260504192403 | 77 | 269 | 2.0 | 7.0 | 0.00 | 0.00 | 0.00 | 41 | 1014.0 |
| 20260504191904 | 77 | 244 | 5.0 | 10.0 | 0.00 | 0.00 | 0.00 | 38 | 1014.0 |
| 20260504191405 | 78 | 285 | 3.0 | 7.0 | 0.00 | 0.00 | 0.00 | 37 | 1014.4 |
| 20260504190903 | 77 | 267 | 3.0 | 8.0 | 0.00 | 0.00 | 0.00 | 40 | 1014.4 |
| 20260504190403 | 77 | 245 | 3.0 | 8.0 | 0.00 | 0.00 | 0.00 | 39 | 1014.4 |
| 20260504185904 | 77 | 181 | 5.0 | 8.0 | 0.00 | 0.00 | 0.00 | 38 | 1014.4 |
| 20260504185403 | 77 | 219 | 3.0 | 7.0 | 0.00 | 0.00 | 0.00 | 40 | 1014.4 |
| 20260504184903 | 77 | 250 | 4.0 | 7.0 | 0.00 | 0.00 | 0.00 | 39 | 1014.4 |
| 20260504184405 | 77 | 30 | 2.0 | 7.0 | 0.00 | 0.00 | 0.00 | 40 | 1014.5 |
| 20260504183903 | 76 | 244 | 2.0 | 7.0 | 0.00 | 0.00 | 0.00 | 43 | 1014.4 |
| 20260504183403 | 76 | 260 | 3.0 | 8.0 | 0.00 | 0.00 | 0.00 | 40 | 1014.4 |
| 20260504182904 | 77 | 224 | 1.0 | 8.0 | 0.00 | 0.00 | 0.00 | 40 | 1014.6 |
| 20260504182403 | 77 | 216 | 4.0 | 8.0 | 0.00 | 0.00 | 0.00 | 40 | 1014.7 |
| 20260504181903 | 77 | 209 | 3.0 | 6.0 | 0.00 | 0.00 | 0.00 | 38 | 1014.7 |
| 20260504181404 | 77 | 217 | 2.0 | 7.0 | 0.00 | 0.00 | 0.00 | 43 | 1014.8 |
| 20260504180904 | 76 | 104 | 5.0 | 12.0 | 0.00 | 0.00 | 0.00 | 41 | 1014.8 |
| 20260504175904 | 76 | 153 | 1.0 | 5.0 | 0.00 | 0.00 | 0.00 | 42 | 1015.1 |
| 20260504175403 | 75 | 175 | 3.0 | 5.0 | 0.00 | 0.00 | 0.00 | 41 | 1015.1 |
| 20260504174405 | 74 | 198 | 2.0 | 7.0 | 0.00 | 0.00 | 0.00 | 41 | 1015.4 |
| 20260504173903 | 75 | 239 | 3.0 | 6.0 | 0.00 | 0.00 | 0.00 | 42 | 1015.4 |
| 20260504173403 | 74 | 230 | 3.0 | 6.0 | 0.00 | 0.00 | 0.00 | 42 | 1015.4 |
| 20260504172904 | 74 | 150 | 2.0 | 8.0 | 0.00 | 0.00 | 0.00 | 42 | 1016.3 |
| 20260504172403 | 74 | 242 | 4.0 | 9.0 | 0.00 | 0.00 | 0.00 | 43 | 1016.3 |
| 20260504171405 | 74 | 230 | 3.0 | 7.0 | 0.00 | 0.00 | 0.00 | 40 | 1016.3 |
| 20260504170903 | 74 | 267 | 2.0 | 7.0 | 0.00 | 0.00 | 0.00 | 43 | 1016.3 |
| 20260504170403 | 75 | 266 | 3.0 | 8.0 | 0.00 | 0.00 | 0.00 | 41 | 1016.3 |
| 20260504160403 | 70 | 253 | 1.0 | 3.0 | 0.00 | 0.00 | 0.00 | 43 | 1016.4 |
| 20260504150903 | 68 | 96 | 2.0 | 5.0 | 0.00 | 0.00 | 0.00 | 48 | 1017.2 |
| 20260504150404 | 67 | 160 | 1.0 | 5.0 | 0.00 | 0.00 | 0.00 | 48 | 1017.2 |
| 20260504140903 | 62 | 106 | 1.0 | 5.0 | 0.00 | 0.00 | 0.00 | 54 | 1017.6 |
| 20260504140403 | 61 | 186 | 2.0 | 5.0 | 0.00 | 0.00 | 0.00 | 55 | 1017.6 |
| 20260504130405 | 55 | 141 | 2.0 | 3.0 | 0.00 | 0.00 | 0.00 | 63 | 1017.8 |
| 20260504110405 | 45 | 247 | 0.0 | 2.0 | 0.00 | 0.00 | 0.00 | 81 | 1017.1 |
| 20260504100405 | 45 | 247 | 0.0 | 0.0 | 0.00 | 0.00 | 0.00 | 81 | 1017.1 |
| 20260504081904 | 44 | 180 | 0.0 | 1.0 | 0.00 | 0.00 | 0.00 | 80 | 1016.7 |
| 20260504081405 | 45 | 180 | 0.0 | 0.0 | 0.00 | 0.00 | 0.00 | 80 | 1016.6 |
| 20260504070404 | 46 | 180 | 0.0 | 0.0 | 0.00 | 0.00 | 0.00 | 75 | 1017.0 |
| 20260504050403 | 56 | 180 | 0.0 | 0.0 | 0.00 | 0.00 | 0.00 | 55 | 1017.4 |
| 20260504045908 | 56 | 180 | 1.0 | 1.0 | 0.00 | 0.00 | 0.00 | 53 | 1017.5 |
| 20260504045403 | 57 | 252 | 1.0 | 2.0 | 0.00 | 0.00 | 0.00 | 52 | 1017.5 |
| 20260504044903 | 57 | 251 | 2.0 | 3.0 | 0.00 | 0.00 | 0.00 | 50 | 1017.5 |
| 20260504044403 | 57 | 264 | 0.0 | 3.0 | 0.00 | 0.00 | 0.00 | 51 | 1017.5 |
| 20260504043904 | 58 | 246 | 1.0 | 3.0 | 0.00 | 0.00 | 0.00 | 50 | 1017.5 |
| 20260504042903 | 58 | 250 | 2.0 | 3.0 | 0.00 | 0.00 | 0.00 | 48 | 1017.5 |
| 20260504042403 | 58 | 251 | 2.0 | 3.0 | 0.00 | 0.00 | 0.00 | 47 | 1017.5 |
| 20260504041402 | 58 | 260 | 2.0 | 3.0 | 0.00 | 0.00 | 0.00 | 47 | 1017.4 |
| 20260504040903 | 58 | 265 | 1.0 | 3.0 | 0.00 | 0.00 | 0.00 | 49 | 1017.4 |
| 20260504040403 | 58 | 250 | 2.0 | 3.0 | 0.00 | 0.00 | 0.00 | 50 | 1017.4 |
| 20260504034903 | 58 | 236 | 3.0 | 6.0 | 0.00 | 0.00 | 0.00 | 49 | 1017.4 |
| 20260504034403 | 58 | 232 | 2.0 | 3.0 | 0.00 | 0.00 | 0.00 | 49 | 1017.4 |
| 20260504033904 | 58 | 238 | 2.0 | 6.0 | 0.00 | 0.00 | 0.00 | 50 | 1017.2 |
| 20260504033402 | 58 | 252 | 1.0 | 3.0 | 0.00 | 0.00 | 0.00 | 51 | 1017.2 |
| 20260504032903 | 58 | 256 | 2.0 | 3.0 | 0.00 | 0.00 | 0.00 | 51 | 1017.0 |
| 20260504032404 | 58 | 253 | 2.0 | 3.0 | 0.00 | 0.00 | 0.00 | 50 | 1017.0 |
| 20260504031903 | 58 | 291 | 0.0 | 2.0 | 0.00 | 0.00 | 0.00 | 50 | 1017.0 |
| 20260504031403 | 58 | 231 | 2.0 | 3.0 | 0.00 | 0.00 | 0.00 | 50 | 1017.0 |
| 20260504030903 | 59 | 260 | 1.0 | 3.0 | 0.00 | 0.00 | 0.00 | 50 | 1016.9 |
| 20260504030403 | 59 | 256 | 2.0 | 7.0 | 0.00 | 0.00 | 0.00 | 49 | 1016.9 |
| 20260504025903 | 59 | 201 | 2.0 | 5.0 | 0.00 | 0.00 | 0.00 | 50 | 1017.0 |
| 20260504025403 | 59 | 248 | 2.0 | 3.0 | 0.00 | 0.00 | 0.00 | 49 | 1017.0 |
| 20260504024903 | 59 | 250 | 2.0 | 3.0 | 0.00 | 0.00 | 0.00 | 50 | 1017.0 |
| 20260504024403 | 59 | 229 | 1.0 | 2.0 | 0.00 | 0.00 | 0.00 | 51 | 1017.0 |
| 20260504023904 | 59 | 225 | 1.0 | 3.0 | 0.00 | 0.00 | 0.00 | 50 | 1017.0 |
| 20260504022903 | 59 | 243 | 1.0 | 3.0 | 0.00 | 0.00 | 0.00 | 50 | 1017.1 |
| 20260504022404 | 58 | 236 | 2.0 | 3.0 | 0.00 | 0.00 | 0.00 | 51 | 1017.1 |
| 20260504021903 | 57 | 252 | 2.0 | 3.0 | 0.00 | 0.00 | 0.00 | 54 | 1017.1 |
| 20260504020904 | 52 | 252 | 1.0 | 3.0 | 0.00 | 0.00 | 0.00 | 68 | 1016.9 |
| 20260504020402 | 52 | 267 | 0.0 | 1.0 | 0.00 | 0.00 | 0.00 | 68 | 1016.9 |
| 20260504015903 | 52 | 267 | 0.0 | 0.0 | 0.00 | 0.00 | 0.00 | 67 | 1016.7 |
| 20260504015403 | 52 | 267 | 0.0 | 0.0 | 0.00 | 0.00 | 0.00 | 66 | 1016.7 |
| 20260504014903 | 52 | 267 | 0.0 | 0.0 | 0.00 | 0.00 | 0.00 | 65 | 1016.7 |
| 20260504014402 | 53 | 267 | 0.0 | 0.0 | 0.00 | 0.00 | 0.00 | 64 | 1016.6 |
| 20260504013904 | 53 | 267 | 0.0 | 0.0 | 0.00 | 0.00 | 0.00 | 64 | 1016.6 |
| 20260504013403 | 53 | 267 | 0.0 | 0.0 | 0.00 | 0.00 | 0.00 | 64 | 1016.6 |
| 20260504012902 | 53 | 267 | 0.0 | 0.0 | 0.00 | 0.00 | 0.00 | 63 | 1016.6 |
| 20260504012404 | 54 | 267 | 0.0 | 0.0 | 0.00 | 0.00 | 0.00 | 63 | 1016.6 |
| 20260504011903 | 54 | 267 | 0.0 | 0.0 | 0.00 | 0.00 | 0.00 | 62 | 1016.6 |
| 20260504011403 | 54 | 267 | 0.0 | 0.0 | 0.00 | 0.00 | 0.00 | 61 | 1016.6 |
| 20260504010903 | 55 | 267 | 0.0 | 0.0 | 0.00 | 0.00 | 0.00 | 60 | 1016.6 |
| 20260504010403 | 55 | 267 | 0.0 | 0.0 | 0.00 | 0.00 | 0.00 | 60 | 1016.6 |
| 20260504005903 | 55 | 267 | 0.0 | 0.0 | 0.00 | 0.00 | 0.00 | 59 | 1016.3 |
| 20260504005404 | 56 | 267 | 0.0 | 0.0 | 0.00 | 0.00 | 0.00 | 58 | 1016.3 |
| 20260504004903 | 56 | 267 | 0.0 | 0.0 | 0.00 | 0.00 | 0.00 | 57 | 1016.3 |
| 20260504004402 | 57 | 267 | 0.0 | 0.0 | 0.00 | 0.00 | 0.00 | 57 | 1016.3 |